FW9474 Weather Reports


time (UTC)temp
C
wind
direction
speed
KPH
gust
KPH
rain 1hr
cm
rain 24hr
cm
rain mn
cm
humidity
%
barometer
mb
20260504081528 4 0 0.0 0.0 0.00 0.00 0.00 94 1017.0
20260504044541 7 0 0.0 0.0 0.00 0.00 0.00 89 1017.3
20260504043030 7 0 0.0 0.0 0.00 0.00 0.00 89 1017.1
20260504041530 7 0 0.0 3.2 0.00 0.00 0.00 87 1017.1
20260504040038 8 0 1.6 3.2 0.00 0.00 0.00 86 1017.3
20260504034528 8 0 0.0 0.0 0.00 0.00 0.00 84 1017.2
20260504033027 9 0 0.0 3.2 0.00 0.00 0.00 83 1017.3
20260504031530 9 0 0.0 3.2 0.00 0.00 0.00 82 1017.3
20260504030031 10 186 0.0 3.2 0.00 0.00 0.00 80 1017.1
20260504024529 10 0 0.0 0.0 0.00 0.00 0.00 78 1017.0
20260504023030 11 0 0.0 0.0 0.00 0.00 0.00 74 1016.8
20260504021527 11 0 0.0 0.0 0.00 0.00 0.00 74 1016.8
20260504020029 11 0 0.0 3.2 0.00 0.00 0.00 71 1016.6
20260504014528 12 0 0.0 3.2 0.00 0.00 0.00 69 1016.4
20260504013036 13 0 0.0 0.0 0.00 0.00 0.00 67 1016.3
20260504011530 13 0 0.0 1.6 0.00 0.00 0.00 63 1016.0
20260504010027 15 216 0.0 4.8 0.00 0.00 0.00 59 1016.0
20260504004530 15 0 0.0 4.8 0.00 0.00 0.00 59 1016.0
20260504003031 16 0 0.0 6.4 0.00 0.00 0.00 57 1015.9
20260504001530 16 0 0.0 4.8 0.00 0.00 0.00 53 1015.8
20260504000028 18 0 0.0 4.8 0.00 0.00 0.00 47 1015.6
20260503234531 18 0 0.0 12.9 0.00 0.00 0.00 45 1015.6
20260503233034 19 161 3.2 8.0 0.00 0.00 0.00 42 1015.5
20260503231529 20 96 3.2 11.3 0.00 0.00 0.00 42 1015.4
20260503230029 20 241 6.4 16.1 0.00 0.00 0.00 38 1015.4
20260503224531 20 159 4.8 17.7 0.00 0.00 0.00 37 1015.6
20260503223028 20 227 8.0 19.3 0.00 0.00 0.00 37 1015.6
20260503221529 20 231 8.0 17.7 0.00 0.00 0.00 37 1015.5
20260503220028 20 252 12.9 24.1 0.00 0.00 0.00 35 1015.6
20260503214527 20 227 6.4 24.1 0.00 0.00 0.00 37 1015.7
20260503213037 20 214 6.4 24.1 0.00 0.00 0.00 37 1015.9
20260503211534 20 180 9.7 22.5 0.00 0.00 0.00 36 1016.0
20260503210031 20 217 11.3 19.3 0.00 0.00 0.00 37 1016.0
20260503204532 20 221 11.3 24.1 0.00 0.00 0.00 36 1016.1
20260503203027 20 162 11.3 30.6 0.00 0.00 0.00 38 1016.3
20260503201529 20 223 8.0 19.3 0.00 0.00 0.00 40 1016.7
20260503200031 20 236 11.3 25.7 0.00 0.00 0.00 41 1016.9
20260503194527 19 193 12.9 27.4 0.00 0.00 0.00 40 1017.3
20260503193029 19 251 14.5 25.7 0.00 0.00 0.00 40 1017.6
20260503191530 19 171 9.7 20.9 0.00 0.00 0.00 43 1017.7
20260503190043 19 238 8.0 27.4 0.00 0.00 0.00 43 1018.0
20260503184527 19 283 4.8 16.1 0.00 0.00 0.00 44 1018.2
20260503183027 18 220 1.6 17.7 0.00 0.00 0.00 44 1018.3
20260503181531 18 158 8.0 22.5 0.00 0.00 0.00 42 1018.5
20260503180039 18 80 6.4 17.7 0.00 0.00 0.00 43 1018.6
20260503174530 17 238 4.8 14.5 0.00 0.00 0.00 44 1018.7
20260503173030 17 105 6.4 16.1 0.00 0.00 0.00 44 1018.9
20260503171539 17 200 8.0 19.3 0.00 0.00 0.00 45 1019.2